User: anonymous   Login
Location: Newark
(52.2090°N, 4.1550°W)
Time: 17:11:02
(UTC+00:00)
Language:

Altair - Orbit

View from above orbital plane
View from above orbital plane
View from above satellite
View from above satellite

Ground track
Ground track

The orbit data is extracted from the following two-line orbital elements,

1    50U 60009B   19259.92739358 -.00000103  00000-0 -17409-3 0  9992
2    50  47.2303 253.3044 0114124 227.8820 131.2223 12.20109647637157
Epoch (UTC): 16 September 2019 22:15:26
Eccentricity: 0.0114124
inclination: 47.2303°
perigee height: 1501 km
apogee height: 1683 km
right ascension of ascending node: 253.3044°
argument of perigee: 227.8820°
revolutions per day: 12.20109647
mean anomaly at epoch: 131.2223°
orbit number at epoch: 63715

The dashed part of the orbit path shows where the satellite is in the earth's shadow,  

DLR